This demonstration page uses our WeatherBlox Daily Observations layout. Learn more.

Left ArrowRight Arrow

41.86663, -103.66717

Hourly Observations for February 8, 2016

Temp ( °F °C ) Dew Point ( °F °C ) Humidity (%) Winds ( mph kmh ) Pressure ( in mb ) Visibility ( mi km ) Precip ( " mm )
12:53 am 00:53 Clear 24 -4.4 12 -11.1 60 60 WNW 15 24 30.47 1032 10 16 N/A
1:53 am 01:53 Clear 24 -4.4 11 -11.7 57 57 WNW 18 30 30.46 1032 10 16 N/A
2:53 am 02:53 Clear 23 -5 11 -11.7 60 60 WNW 14 22 30.44 1031 10 16 N/A
3:53 am 03:53 Clear 22 -5.6 11 -11.7 63 63 NW 13 20 30.45 1031 10 16 N/A
4:53 am 04:53 Clear 21 -6.1 10 -12.2 62 62 WNW 10 17 30.47 1032 10 16 N/A
5:53 am 05:53 Clear 21 -6.1 11 -11.7 65 65 W 13 20 30.49 1033 10 16 N/A
6:53 am 06:53 Clear 23 -5 12 -11.1 63 63 WNW 13 20 30.48 1032 10 16 N/A
7:53 am 07:53 Sunny 27 -2.8 14 -10 58 58 NW 15 24 30.49 1033 10 16 N/A
8:53 am 08:53 Mostly Cloudy 31 -0.6 16 -8.9 54 54 WNW 14 22 30.48 1032 10 16 N/A
9:53 am 09:53 Mostly Sunny 33 0.6 17 -8.3 52 52 NW 23 37 30.48 1032 10 16 N/A
10:53 am 10:53 Sunny 36 2.2 19 -7.2 50 50 WNW 21 33 30.47 1032 10 16 N/A
11:53 am 11:53 Cloudy 38 3.3 22 -5.6 52 52 NW 13 20 30.44 1031 10 16 N/A
12:53 pm 12:53 Cloudy 41 5 24 -4.4 51 51 WNW 14 22 30.39 1029 10 16 N/A
1:53 pm 13:53 Cloudy 42 5.6 25 -3.9 51 51 NW 17 28 30.37 1029 10 16 N/A
2:53 pm 14:53 Cloudy 41 5 28 -2.2 60 60 NW 13 20 30.38 1029 10 16 N/A
3:53 pm 15:53 Cloudy 41 5 28 -2.2 60 60 NW 12 19 30.36 1028 10 16 N/A
4:53 pm 16:53 Cloudy 40 4.4 29 -1.7 65 65 NNW 9 15 30.37 1029 10 16 N/A
5:53 pm 17:53 Clear 38 3.3 28 -2.2 68 68 WNW 10 17 30.38 1029 10 16 N/A
6:53 pm 18:53 Mostly Cloudy 38 3.3 29 -1.7 70 70 NW 12 19 30.37 1029 10 16 N/A
7:53 pm 19:53 Clear 33 0.6 27 -2.8 78 78 NNW 9 15 30.36 1028 10 16 N/A
8:53 pm 20:53 Clear 35 1.7 27 -2.8 72 72 WNW 12 19 30.33 1027 10 16 N/A
9:53 pm 21:53 Clear 30 -1.1 26 -3.3 85 85 NW 7 11 30.34 1027 10 16 N/A
10:53 pm 22:53 Clear 31 -0.6 26 -3.3 82 82 WNW 9 15 30.32 1027 10 16 N/A
11:53 pm 23:53 Clear 31 -0.6 25 -3.9 79 79 WNW 12 19 30.31 1026 10 16 N/A

Powered by AerisWeather